XE2WR-3 Weather Reports


time (UTC)temp
C
wind
direction
speed
KPH
gust
KPH
rain 1hr
cm
rain 24hr
cm
rain mn
cm
humidity
%
barometer
mb
20260506044521 27 85 11.3 17.7 0.00 0.00 0.00 73 1006.5
20260506043033 28 87 0.0 1.6 0.00 0.00 0.00 59 1006.3
20260506041514 29 87 0.0 3.2 0.00 0.00 0.00 60 1006.2
20260506040013 30 89 1.6 6.4 0.00 0.00 0.00 59 1006.2
20260506034513 30 65 4.8 8.0 0.00 0.00 0.00 58 1006.2
20260506033017 30 85 1.6 4.8 0.00 0.00 0.00 57 1006.1
20260506031512 30 121 1.6 8.0 0.00 0.00 0.00 56 1006.1
20260506030013 30 113 1.6 8.0 0.00 0.00 0.00 56 1005.9
20260506024527 30 148 4.8 12.9 0.00 0.00 0.00 57 1005.9
20260506023009 30 108 6.4 9.7 0.00 0.00 0.00 58 1005.7
20260506021511 30 93 4.8 11.3 0.00 0.00 0.00 57 1005.7
20260506020010 31 108 8.0 11.3 0.00 0.00 0.00 57 1005.4
20260506014509 31 82 11.3 16.1 0.00 0.00 0.00 56 1005.1
20260506013008 31 68 11.3 16.1 0.00 0.00 0.00 55 1004.8
20260506011507 31 73 9.7 17.7 0.00 0.00 0.00 54 1004.6
20260506010008 31 85 14.5 20.9 0.00 0.00 0.00 54 1004.4
20260506004507 32 108 14.5 22.5 0.00 0.00 0.00 53 1004.4
20260506003004 32 103 12.9 20.9 0.00 0.00 0.00 52 1004.3
20260506001504 32 56 14.5 24.1 0.00 0.00 0.00 51 1004.2
20260506000002 33 63 8.0 19.3 0.00 0.00 0.00 49 1004.0
20260505234504 33 71 12.9 20.9 0.00 0.00 0.00 48 1003.9
20260505233002 33 53 11.3 20.9 0.00 0.00 0.00 48 1003.9
20260505231608 33 79 12.9 19.3 0.00 0.00 0.00 48 1003.8
20260505230059 33 63 6.4 16.1 0.00 0.00 0.00 48 1003.8
20260505224555 33 65 9.7 24.1 0.00 0.00 0.00 50 1003.8
20260505223103 33 73 12.9 19.3 0.00 0.00 0.00 49 1004.0
20260505221557 33 101 9.7 16.1 0.00 0.00 0.00 48 1004.1
20260505220045 33 125 1.6 17.7 0.00 0.00 0.00 47 1004.2
20260505214602 33 68 9.7 19.3 0.00 0.00 0.00 47 1004.2
20260505213040 33 111 14.5 24.1 0.00 0.00 0.00 47 1004.4
20260505211537 32 94 16.1 20.9 0.00 0.00 0.00 48 1004.6
20260505210037 33 109 14.5 20.9 0.00 0.00 0.00 47 1004.7
20260505204533 32 67 9.7 16.1 0.00 0.00 0.00 48 1005.0
20260505203028 32 62 9.7 16.1 0.00 0.00 0.00 49 1005.4
20260505201524 32 65 9.7 16.1 0.00 0.00 0.00 47 1005.4
20260505200001 32 97 6.4 12.9 0.00 0.00 0.00 49 1005.7
20260505194558 32 65 6.4 14.5 0.00 0.00 0.00 50 1005.9
20260505193055 32 51 4.8 11.3 0.00 0.00 0.00 51 1006.1
20260505191552 31 62 8.0 14.5 0.00 0.00 0.00 52 1006.2
20260505190052 31 64 9.7 14.5 0.00 0.00 0.00 52 1006.4
20260505184546 31 57 6.4 17.7 0.00 0.00 0.00 53 1006.6
20260505183054 31 95 8.0 12.9 0.00 0.00 0.00 54 1006.7
20260505181540 30 68 8.0 19.3 0.00 0.00 0.00 54 1006.8
20260505180042 30 72 14.5 20.9 0.00 0.00 0.00 57 1006.9
20260505174544 30 101 6.4 12.9 0.00 0.00 0.00 58 1007.2
20260505173033 29 72 4.8 12.9 0.00 0.00 0.00 59 1007.4
20260505171529 28 89 6.4 12.9 0.00 0.00 0.00 59 1007.4
20260505170028 28 111 6.4 11.3 0.00 0.00 0.00 61 1007.7
20260505164523 27 60 6.4 12.9 0.00 0.00 0.00 66 1007.7
20260505163024 27 62 6.4 11.3 0.00 0.00 0.00 69 1007.7
20260505161521 27 65 4.8 8.0 0.00 0.00 0.00 68 1007.8
20260505153016 26 55 0.0 4.8 0.00 0.00 0.00 72 1007.9
20260505151515 27 67 0.0 3.2 0.00 0.00 0.00 71 1008.0
20260505124606 19 222 0.0 4.8 0.00 0.00 0.00 51 1008.2
20260505123057 19 213 3.2 4.8 0.00 0.00 0.00 54 1008.3
20260505121559 19 215 3.2 4.8 0.00 0.00 0.00 55 1008.1
20260505120056 19 243 0.0 1.6 0.00 0.00 0.00 52 1007.9
20260505114559 19 243 0.0 3.2 0.00 0.00 0.00 52 1007.9
20260505113105 19 248 0.0 0.0 0.00 0.00 0.00 50 1008.0
20260505111552 20 248 0.0 0.0 0.00 0.00 0.00 53 1007.9
20260505101552 19 250 1.6 4.8 0.00 0.00 0.00 60 1008.1
20260505100045 19 259 0.0 1.6 0.00 0.00 0.00 61 1008.2
20260505094544 19 259 0.0 1.6 0.00 0.00 0.00 63 1008.3
20260505093042 19 259 0.0 4.8 0.00 0.00 0.00 73 1008.4
20260505091545 20 222 0.0 0.0 0.00 0.00 0.00 73 1008.3
20260505090041 20 223 0.0 3.2 0.00 0.00 0.00 73 1008.3
20260505084538 20 222 1.6 3.2 0.00 0.00 0.00 74 1008.3
20260505083034 20 210 1.6 4.8 0.00 0.00 0.00 73 1008.3
20260505081532 20 236 0.0 3.2 0.00 0.00 0.00 69 1008.4
20260505080030 21 84 1.6 4.8 0.00 0.00 0.00 68 1008.5
20260505074530 21 75 3.2 9.7 0.00 0.00 0.00 69 1008.6
20260505073026 21 96 3.2 6.4 0.00 0.00 0.00 69 1008.8
20260505071531 21 76 1.6 3.2 0.00 0.00 0.00 70 1008.9
20260505070023 21 76 0.0 3.2 0.00 0.00 0.00 72 1009.1
20260505064519 21 83 3.2 8.0 0.00 0.00 0.00 72 1009.3
20260505063017 21 68 6.4 12.9 0.00 0.00 0.00 74 1009.4
20260505061517 21 60 6.4 14.5 0.00 0.00 0.00 77 1009.6
20260505060032 21 81 9.7 12.9 0.00 0.00 0.00 79 1009.8
20260505054512 22 107 8.0 12.9 0.00 0.00 0.00 80 1009.9
20260505053007 22 74 6.4 11.3 0.00 0.00 0.00 81 1010.1